[[{"header":{"parameterUnit":"m.s-1","parameterCategory":1,"la1":30.2991,"la2":30.254,"lo1":-89.0895,"lo2":-89.0444,"dy":0.0017,"dx":0.0017,"nx":28,"ny":28,"refTime":"2025-04-06T21:00:00:Z","depth":0,"parameterNumber":2,"parameterNumberName":"U-component_of_WINDS"},"data":[0,0,0,0,0,0,0,0,0,0,0,0,0,0,0,0,0,0,0,0,0,0,0,0,0,0,0,0,0,0,0,0,0,0,0,0,0,0,0,0,0,0,0,0,0,0,0,0,0,0,0,0,0,0,0,0,0,0,0.729,0.7291,0,0.7334,0.7334,0.7335,0.7361,0.7361,0.7361,0.7361,0.7405,0.7406,0.7408,0,0,0,0,0,0,0,0,0,0,0,0,0,0.7231,0.7231,0.729,0.7291,0.7291,0.7334,0.7334,0.7335,0.7361,0.7361,0.7361,0.7361,0.7405,0.7406,0.7408,0,0,0,0,0,0,0,0,0,0,0,0,0,0.7264,0.7232,0.729,0.7309,0.7311,0.7334,0.7335,0.7335,0.7361,0.7361,0.7361,0.7361,0.7405,0.7406,0.7408,0.7415,0,0,0.7413,0.7413,0,0,0,0,0,0,0,0,0.7262,0.7266,0.7306,0.7308,0.731,0.7342,0.733,0.7362,0.7361,0.7342,0.7361,0.7361,0.7384,0.7387,0.7395,0.7417,0.7419,0.7413,0.7414,0.7415,0.7415,0,0,0,0,0,0,0,0.7259,0.7264,0.7308,0.7307,0.7309,0.7316,0.7321,0.7336,0.7362,0.7344,0.7345,0.735,0.7385,0.7394,0.7397,0.7419,0.7413,0.7414,0.7415,0.7416,0.745,0.745,0,0,0,0,0,0,0.7254,0.7262,0.7306,0.7309,0.7286,0.7317,0.7322,0.7332,0.7361,0.7366,0.735,0.7351,0.7391,0.7395,0.7398,0.7409,0.7415,0.7416,0.7417,0.745,0.745,0.745,0,0,0,0,0,0,0.7252,0.7258,0.7304,0.7286,0.7292,0.7318,0.7328,0.7332,0.7341,0.7366,0.7371,0.7354,0.7391,0.7396,0.7411,0.7411,0.7417,0.7418,0.745,0.745,0.745,0.743,0,0,0,0,0,0,0.7251,0.7257,0.7259,0.7286,0.7293,0.7316,0.7328,0.7333,0.7343,0.7345,0.7371,0.7376,0.7392,0.7408,0.7412,0.7413,0.742,0.745,0.745,0.745,0.7431,0.7429,0.7428,0,0,0,0,0,0.7248,0.7251,0.7259,0.7264,0.7297,0.7316,0.732,0.7338,0.7343,0.7346,0.7363,0.7375,0.741,0.7409,0.7414,0.7416,0.745,0.745,0.745,0.7431,0.743,0.7428,0,0,0,0,0,0,0.7224,0.7255,0.7264,0.7276,0.7293,0.732,0.7324,0.7336,0.7352,0.7353,0.7375,0.7381,0.7394,0.7406,0.7405,0.7425,0.7432,0.7433,0.7416,0.7414,0.7413,0.7409,0.7421,0,0,0,0,0,0.722,0.7232,0.7259,0.7267,0.7275,0.7298,0.7307,0.732,0.7339,0.7346,0.7364,0.7381,0.7397,0.7406,0.7422,0.7433,0.744,0.7437,0.7435,0.7434,0.7434,0.7443,0.7442,0.745,0.745,0.745,0,0,0.7211,0.723,0.7237,0.7263,0.7277,0.729,0.7304,0.7317,0.7327,0.7348,0.7363,0.7377,0.7398,0.7412,0.7418,0.7423,0.7434,0.7434,0.7433,0.7434,0.7442,0.7442,0.7441,0.745,0.745,0.745,0,0,0.7203,0.7218,0.7227,0.7242,0.7264,0.728,0.7282,0.7308,0.7318,0.7334,0.735,0.7363,0.7388,0.7403,0.7414,0.7414,0.7425,0.7418,0.7411,0.7418,0.7418,0.7417,0.7418,0.7418,0.7418,0.7418,0.7418,0,0.719,0.7209,0.723,0.7242,0.7253,0.7274,0.7283,0.7297,0.7323,0.7331,0.7335,0.7369,0.7385,0.7403,0.7403,0.7411,0.7414,0.7415,0.7416,0.7416,0.7416,0.7417,0.7417,0.7417,0.7418,0.7418,0.7418,0,0.7193,0.7206,0.7211,0.7236,0.7248,0.7259,0.7281,0.7291,0.7304,0.7319,0.7336,0.7356,0.7376,0.7382,0.7393,0.7402,0.7404,0.7412,0.7419,0.7414,0.7415,0.7415,0.7416,0.7416,0.7417,0.7417,0,0,0.7168,0.7206,0.7207,0.722,0.7247,0.7258,0.7271,0.7291,0.73,0.7318,0.7329,0.7351,0.736,0.7372,0.7386,0.7393,0.7392,0.7401,0.7401,0.7399,0.7404,0.7398,0.7397,0.7401,0.7401,0.7401,0.7402,0,0.7164,0.7187,0.7206,0.7222,0.7236,0.7256,0.7267,0.7286,0.7301,0.7315,0.7332,0.7348,0.7357,0.7365,0.7373,0.7391,0.7394,0.7391,0.7412,0.7412,0.7406,0.7398,0.7391,0.7391,0.7403,0.7403,0.7403,0,0.7161,0.7179,0.7197,0.7224,0.723,0.724,0.7261,0.7274,0.7296,0.7307,0.7321,0.7337,0.7352,0.7358,0.7379,0.7377,0.7387,0.7398,0.7398,0.7401,0.7407,0.7401,0.7392,0.7392,0.7404,0.7404,0.7404,0,0.7143,0.7171,0.7185,0.7195,0.7227,0.7234,0.7247,0.7269,0.7281,0.73,0.7308,0.7328,0.7339,0.7355,0.7375,0.7378,0.7395,0.7403,0.7405,0.7404,0.7407,0.7407,0.74,0.7413,0.7413,0.7413,0.7413,0,0.7136,0.7146,0.7178,0.7186,0.7199,0.7222,0.7233,0.7249,0.7269,0.7281,0.7301,0.7312,0.7339,0.7354,0.737,0.7386,0.7391,0.7401,0.7405,0.7399,0.7398,0.7406,0.7406,0.7413,0.7413,0.7413,0.7413,0,0.7116,0.7138,0.7155,0.7185,0.7193,0.72,0.7226,0.7236,0.7253,0.7269,0.7274,0.7301,0.732,0.7342,0.7368,0.7379,0.7394,0.74,0.7387,0.7389,0.739,0.739,0.7388,0.739,0.7402,0.7401,0.7401,0,0.711,0.7119,0.7149,0.7159,0.7173,0.7189,0.7201,0.7224,0.7237,0.7263,0.727,0.7291,0.7308,0.7338,0.736,0.7381,0.7388,0.7386,0.7391,0.7385,0.7388,0.7388,0.7389,0.7384,0.7384,0.7384,0.7384,0,0.7098,0.7108,0.7125,0.7146,0.7161,0.7178,0.7197,0.7204,0.7232,0.7245,0.7265,0.7278,0.7306,0.7327,0.735,0.7365,0.7379,0.7382,0.7384,0.7378,0.737,0.7375,0.7383,0.7382,0.7382,0.7382,0.7382,0.7382,0.7085,0.7094,0.7117,0.7136,0.7153,0.717,0.7181,0.72,0.7217,0.7241,0.7255,0.7274,0.7298,0.7331,0.7346,0.7362,0.7367,0.7369,0.737,0.737,0.7369,0.7367,0.7367,0.7367,0.7367,0.7367,0.7367,0,0.7074,0.709,0.7107,0.7133,0.7148,0.7161,0.7182,0.7194,0.7211,0.7232,0.7249,0.7273,0.7294,0.7318,0.7341,0.7349,0.7356,0.7354,0.7354,0.7358,0.7363,0.7359,0.7348,0.7348,0.7348,0.7348,0.7348,0.7348,0.707,0.7086,0.71,0.7125,0.7141,0.7161,0.7173,0.7189,0.7206,0.7231,0.7249,0.7265,0.7287,0.7312,0.7332,0.7339,0.7346,0.7342,0.7351,0.7355,0.7357,0.7358,0.7355,0.7344,0.7344,0.7344,0.7344,0.7344]},{"header":{"parameterUnit":"m.s-1","parameterCategory":1,"la1":30.2991,"la2":30.254,"lo1":-89.0895,"lo2":-89.0444,"dy":0.0017,"dx":0.0017,"nx":28,"ny":28,"refTime":"2025-04-06T21:00:00:Z","depth":0,"parameterNumber":3,"parameterNumberName":"V-component_of_WINDS"},"data":[0,0,0,0,0,0,0,0,0,0,0,0,0,0,0,0,0,0,0,0,0,0,0,0,0,0,0,0,0,0,0,0,0,0,0,0,0,0,0,0,0,0,0,0,0,0,0,0,0,0,0,0,0,0,0,0,0,0,-7.2328,-7.2329,0,-7.2474,-7.2475,-7.2477,-7.2408,-7.2405,-7.2401,-7.2398,-7.2541,-7.2548,-7.2555,0,0,0,0,0,0,0,0,0,0,0,0,0,-7.1983,-7.199,-7.2327,-7.2329,-7.2331,-7.2473,-7.2475,-7.2477,-7.2409,-7.2405,-7.24,-7.2396,-7.2539,-7.2547,-7.2556,0,0,0,0,0,0,0,0,0,0,0,0,0,-7.2131,-7.1992,-7.2327,-7.2314,-7.2315,-7.2473,-7.2476,-7.2478,-7.241,-7.2404,-7.2399,-7.2394,-7.2536,-7.2546,-7.2557,-7.2735,0,0,-7.259,-7.2595,0,0,0,0,0,0,0,0,-7.2123,-7.2144,-7.2314,-7.2315,-7.2316,-7.2417,-7.2407,-7.2564,-7.2411,-7.2374,-7.2397,-7.2391,-7.2504,-7.2517,-7.2556,-7.2742,-7.2748,-7.2591,-7.2598,-7.2603,-7.2606,0,0,0,0,0,0,0,-7.2113,-7.2137,-7.2385,-7.2317,-7.2318,-7.2299,-7.2314,-7.2436,-7.2468,-7.2376,-7.2372,-7.239,-7.2503,-7.2546,-7.2559,-7.275,-7.2591,-7.2601,-7.2607,-7.2612,-7.3087,-7.3093,0,0,0,0,0,0,-7.2104,-7.2129,-7.238,-7.2389,-7.2204,-7.231,-7.2327,-7.239,-7.2466,-7.2473,-7.2395,-7.2387,-7.253,-7.2547,-7.2564,-7.2777,-7.2603,-7.2613,-7.2619,-7.3081,-7.3088,-7.3095,0,0,0,0,0,0,-7.2096,-7.2127,-7.2375,-7.2258,-7.2288,-7.2322,-7.2394,-7.2396,-7.2439,-7.248,-7.2485,-7.2433,-7.2527,-7.2549,-7.2693,-7.2781,-7.2618,-7.2628,-7.3074,-7.3083,-7.3092,-7.3204,0,0,0,0,0,0,-7.2087,-7.2125,-7.2194,-7.226,-7.2295,-7.2504,-7.2399,-7.2403,-7.2459,-7.2449,-7.2518,-7.2524,-7.2524,-7.2677,-7.2704,-7.2793,-7.2636,-7.3066,-7.3078,-7.3089,-7.3193,-7.3216,-7.3236,0,0,0,0,0,-7.2075,-7.2218,-7.2198,-7.2228,-7.2383,-7.2509,-7.2528,-7.2527,-7.2466,-7.2535,-7.2561,-7.2521,-7.2767,-7.2693,-7.2722,-7.2816,-7.306,-7.3075,-7.3088,-7.3183,-7.3211,-7.3235,0,0,0,0,0,0,-7.2159,-7.2227,-7.2205,-7.2375,-7.2437,-7.2497,-7.2584,-7.2558,-7.2637,-7.2624,-7.2618,-7.2634,-7.2784,-7.2814,-7.273,-7.2991,-7.2904,-7.2924,-7.2966,-7.2994,-7.3015,-7.3004,-7.2645,0,0,0,0,0,-7.2198,-7.2297,-7.235,-7.2494,-7.2527,-7.2551,-7.2605,-7.26,-7.2663,-7.2688,-7.2725,-7.2786,-7.2877,-7.2937,-7.3023,-7.3197,-7.321,-7.3275,-7.3297,-7.3314,-7.3332,-7.3425,-7.3455,-7.314,-7.314,-7.314,0,0,-7.2278,-7.2328,-7.239,-7.2513,-7.256,-7.2661,-7.2573,-7.2683,-7.2757,-7.2704,-7.2843,-7.2873,-7.294,-7.31,-7.3172,-7.313,-7.3422,-7.3332,-7.3346,-7.3354,-7.3442,-7.3472,-7.3499,-7.3149,-7.3148,-7.3146,0,0,-7.2476,-7.2524,-7.265,-7.27,-7.2773,-7.2788,-7.2818,-7.2883,-7.2901,-7.3041,-7.3004,-7.309,-7.3247,-7.3297,-7.3343,-7.356,-7.3525,-7.3588,-7.37,-7.3792,-7.3816,-7.3838,-7.3915,-7.3943,-7.3605,-7.3605,-7.3605,0,-7.2566,-7.2719,-7.2717,-7.2831,-7.2886,-7.2844,-7.297,-7.3018,-7.3115,-7.3153,-7.3104,-7.3301,-7.3343,-7.3514,-7.3567,-7.3606,-7.3639,-7.358,-7.3813,-7.3835,-7.3856,-7.3929,-7.3958,-7.3612,-7.3612,-7.3611,-7.361,0,-7.2825,-7.2931,-7.3024,-7.3121,-7.3186,-7.3305,-7.332,-7.3385,-7.3374,-7.3393,-7.3536,-7.3586,-7.3681,-7.3721,-7.371,-7.389,-7.3861,-7.3814,-7.3726,-7.3893,-7.3961,-7.3989,-7.3622,-7.362,-7.3618,-7.3616,0,0,-7.308,-7.3176,-7.321,-7.3254,-7.3332,-7.3413,-7.353,-7.3625,-7.3681,-7.3749,-7.3846,-7.398,-7.3936,-7.3988,-7.3982,-7.4062,-7.423,-7.4004,-7.4005,-7.4044,-7.4431,-7.4467,-7.4499,-7.4208,-7.4214,-7.4218,-7.4425,0,-7.3284,-7.3491,-7.3493,-7.3683,-7.378,-7.3742,-7.3843,-7.3901,-7.3923,-7.4006,-7.4028,-7.4124,-7.4059,-7.409,-7.4168,-7.4194,-7.4308,-7.4179,-7.4296,-7.4301,-7.4281,-7.4535,-7.4573,-7.4767,-7.4452,-7.4457,-7.446,0,-7.3549,-7.3628,-7.3828,-7.3893,-7.3933,-7.4025,-7.4112,-7.4194,-7.4258,-7.4267,-7.4326,-7.4308,-7.4425,-7.4334,-7.4494,-7.4406,-7.4454,-7.4474,-7.4482,-7.4492,-7.439,-7.4552,-7.4829,-7.4858,-7.4502,-7.4499,-7.4496,0,-7.3714,-7.3871,-7.4011,-7.4049,-7.4128,-7.4193,-7.4228,-7.4287,-7.4344,-7.442,-7.4457,-7.4544,-7.4592,-7.4659,-7.4664,-7.4597,-7.4825,-7.4735,-7.4835,-7.4835,-7.4884,-7.4881,-7.5172,-7.4916,-7.4916,-7.4915,-7.4914,0,-7.3941,-7.4065,-7.4086,-7.4173,-7.4309,-7.431,-7.4445,-7.4474,-7.4527,-7.4616,-7.4588,-7.4672,-7.4674,-7.476,-7.4764,-7.4896,-7.4917,-7.4927,-7.4927,-7.493,-7.4929,-7.4961,-7.4947,-7.4923,-7.4921,-7.4919,-7.4918,0,-7.4149,-7.4169,-7.4319,-7.4382,-7.44,-7.4498,-7.4551,-7.4632,-7.465,-7.4764,-7.479,-7.4819,-7.4918,-7.493,-7.5045,-7.5048,-7.5207,-7.5192,-7.5186,-7.5183,-7.5283,-7.5273,-7.5604,-7.5647,-7.5364,-7.5366,-7.5369,0,-7.4293,-7.4388,-7.4461,-7.452,-7.456,-7.4655,-7.4714,-7.4717,-7.4779,-7.4859,-7.493,-7.5027,-7.5105,-7.5265,-7.5294,-7.5382,-7.5369,-7.5479,-7.5381,-7.5381,-7.537,-7.5364,-7.5373,-7.5497,-7.55,-7.5503,-7.5505,0,-7.4545,-7.455,-7.4637,-7.4728,-7.4799,-7.487,-7.4936,-7.4986,-7.4997,-7.5068,-7.517,-7.5231,-7.5349,-7.5445,-7.5531,-7.5565,-7.5537,-7.5535,-7.5563,-7.5567,-7.5559,-7.5564,-7.5237,-7.5528,-7.5525,-7.5524,-7.5522,-7.5521,-7.4725,-7.4807,-7.4872,-7.497,-7.5021,-7.5084,-7.5163,-7.5192,-7.5278,-7.5377,-7.5372,-7.5485,-7.5545,-7.5659,-7.5699,-7.5786,-7.5749,-7.5789,-7.58,-7.5809,-7.5819,-7.5546,-7.5801,-7.5801,-7.58,-7.58,-7.5799,0,-7.4976,-7.5016,-7.5106,-7.5201,-7.5277,-7.5246,-7.5318,-7.5383,-7.5483,-7.5543,-7.5621,-7.5738,-7.5831,-7.5868,-7.5959,-7.6021,-7.601,-7.6044,-7.6039,-7.6047,-7.5847,-7.5814,-7.6051,-7.6051,-7.6051,-7.6051,-7.6051,-7.6051,-7.5115,-7.5253,-7.5266,-7.5428,-7.5466,-7.5578,-7.5622,-7.5679,-7.5727,-7.586,-7.5938,-7.5962,-7.6013,-7.6107,-7.619,-7.6198,-7.6232,-7.6272,-7.6275,-7.6087,-7.6062,-7.6037,-7.6006,-7.628,-7.628,-7.6468,-7.647,-7.6471]}]]